Date String (YYYY-MM-DD hh:mm:ss) UTC,Instrument flags,Ambient pressure (hPa),Sample flow (lpm),Bypass flow (lpm),Sample temperature (°C),Ambient temperature (°C),ASC tube jacket temperature (°C),LED temperature (°C),Box temperature (°C),Sample RH (%),Span deviation,Mass concentration (μg/m³),Mass concentration (μg/m³),Mass concentration (μg/m³)
DateTimeUTC,F1_M11,P_M11,Q1_M11,Q2_M11,T1_M11,T2_M11,T3_M11,T4_M11,T5_M11,U1_M11,ZSPAN_M11,X0_M11,X2_M11,X1_M11
2022-10-07 11:00:00,,0837.4,4.99,0.00,28.6,26.7,00.0,37.5,30.4,22.1,-001.3,0030.15,0019.84,0017.27
2022-10-07 11:01:00,,0837.4,5.01,0.00,28.6,26.7,00.0,37.4,30.4,22.0,-001.7,0029.72,0019.67,0017.13
2022-10-07 11:02:00,,0837.3,5.00,0.00,28.6,26.7,00.0,37.4,30.4,22.0,-002.0,0029.33,0019.52,0016.99
2022-10-07 11:03:00,,0837.4,4.99,0.00,28.6,26.6,00.0,37.4,30.4,22.0,-001.6,0029.20,0019.34,0016.84
2022-10-07 11:04:00,,0837.4,5.01,0.00,28.6,26.6,00.0,37.4,30.4,22.0,-001.5,0029.65,0019.25,0016.70
2022-10-07 11:05:00,,0837.3,4.99,0.00,28.5,26.6,00.0,37.4,30.4,21.9,-001.7,0029.15,0019.09,0016.59
2022-10-07 11:06:00,,0837.4,5.01,0.00,28.5,26.6,00.0,37.4,30.3,21.9,-001.5,0028.84,0018.85,0016.45
2022-10-07 11:07:00,,0837.3,5.00,0.00,28.5,26.6,00.0,37.4,30.3,21.9,-001.2,0028.48,0018.62,0016.33
2022-10-07 11:08:00,,0837.4,4.98,0.00,28.5,26.5,00.0,37.4,30.3,21.9,-000.8,0028.34,0018.48,0016.26
2022-10-07 11:09:00,,0837.4,5.01,0.00,28.5,26.5,00.0,37.3,30.3,21.9,-000.8,0027.67,0018.29,0016.16
2022-10-07 11:10:00,,0837.4,5.00,0.00,28.5,26.5,00.0,37.3,30.3,21.9,-000.3,0026.77,0018.23,0016.09
2022-10-07 11:11:00,,0837.4,4.99,0.00,28.5,26.5,00.0,37.3,30.3,21.9,-000.4,0026.50,0018.08,0016.01
2022-10-07 11:12:00,,0837.4,5.00,0.00,28.4,26.4,00.0,37.3,30.2,21.9,0000.5,0026.90,0017.98,0015.92
2022-10-07 11:13:00,,0837.4,5.01,0.00,28.4,26.4,00.0,37.3,30.2,21.9,0000.8,0027.55,0017.92,0015.83
2022-10-07 11:14:00,,0837.4,4.98,0.00,28.4,26.4,00.0,37.3,30.2,21.9,0000.2,0027.65,0017.84,0015.77
2022-10-07 11:15:00,,0837.4,5.01,0.00,28.4,26.4,00.0,37.3,30.2,21.9,-000.1,0026.97,0017.74,0015.69
2022-10-07 11:16:00,,0837.4,5.00,0.00,28.4,26.4,00.0,37.2,30.2,22.0,0000.4,0026.74,0017.69,0015.62
2022-10-07 11:17:00,,0837.4,4.99,0.00,28.4,26.4,00.0,37.2,30.2,22.0,0000.8,0026.70,0017.69,0015.56
2022-10-07 11:18:00,,0837.4,5.00,0.00,28.4,26.4,00.0,37.2,30.2,22.1,0001.1,0026.67,0017.65,0015.51
2022-10-07 11:19:00,,0837.4,4.99,0.00,28.4,26.5,00.0,37.2,30.2,22.1,0001.0,0026.63,0017.59,0015.40
2022-10-07 11:20:00,,0837.4,5.00,0.00,28.3,26.4,00.0,37.2,30.2,22.0,0000.5,0025.91,0017.43,0015.26
2022-10-07 11:21:00,,0837.4,5.00,0.00,28.3,26.4,00.0,37.2,30.2,22.0,0000.1,0025.56,0017.21,0015.10
2022-10-07 11:22:00,,0837.5,4.99,0.00,28.3,26.4,00.0,37.2,30.1,22.0,0000.6,0025.33,0017.07,0014.97
2022-10-07 11:23:00,,0837.4,5.01,0.00,28.3,26.3,00.0,37.2,30.1,22.0,0001.2,0024.80,0016.89,0014.83
2022-10-07 11:24:00,,0837.4,5.01,0.00,28.3,26.3,00.0,37.1,30.1,22.0,0000.9,0024.25,0016.68,0014.67
2022-10-07 11:25:00,,0837.4,4.99,0.00,28.3,26.3,00.0,37.1,30.1,21.9,0000.9,0024.01,0016.45,0014.47
2022-10-07 11:26:00,,0837.4,5.01,0.00,28.3,26.3,00.0,37.1,30.0,21.9,0001.3,0023.79,0016.18,0014.28
2022-10-07 11:27:00,,0837.4,5.01,0.00,28.2,26.3,00.0,37.1,30.0,21.8,0001.1,0024.06,0015.92,0014.06
2022-10-07 11:28:00,,0837.4,4.98,0.00,28.2,26.2,00.0,37.1,30.0,21.8,0000.7,0024.13,0015.65,0013.86
2022-10-07 11:29:00,,0837.4,5.01,0.00,28.2,26.2,00.0,37.1,30.0,21.8,0000.7,0023.94,0015.42,0013.67
2022-10-07 11:30:00,,0837.4,5.00,0.00,28.2,26.3,00.0,37.1,30.0,21.8,0000.2,0023.57,0015.20,0013.52
2022-10-07 11:31:00,,0837.5,4.99,0.00,28.2,26.3,00.0,37.0,30.0,21.8,0000.4,0023.43,0015.07,0013.41
2022-10-07 11:32:00,,0837.4,5.02,0.00,28.2,26.3,00.0,37.0,30.0,21.9,0000.6,0023.33,0014.94,0013.28
2022-10-07 11:33:00,,0837.4,4.99,0.00,28.2,26.3,00.0,37.0,30.0,21.9,-000.0,0023.16,0014.75,0013.12
2022-10-07 11:34:00,,0837.4,5.01,0.00,28.2,26.2,00.0,37.0,30.0,21.9,-000.8,0022.66,0014.53,0012.94
2022-10-07 11:35:00,,0837.5,5.00,0.00,28.1,26.2,00.0,37.0,30.0,21.8,-000.6,0021.99,0014.36,0012.77
2022-10-07 11:36:00,,0837.5,5.00,0.00,28.1,26.2,00.0,37.0,30.0,21.8,-000.1,0021.27,0014.17,0012.63
2022-10-07 11:37:00,,0837.5,5.01,0.00,28.1,26.3,00.0,37.0,30.0,21.8,0000.3,0020.66,0013.98,0012.50
2022-10-07 11:38:00,,0837.5,5.00,0.00,28.1,26.3,00.0,37.0,30.0,21.8,0000.6,0019.96,0013.81,0012.40
2022-10-07 11:39:00,,0837.5,5.00,0.00,28.1,26.2,00.0,37.0,30.0,21.8,0000.6,0019.40,0013.67,0012.27
2022-10-07 11:40:00,,0837.5,4.99,0.00,28.1,26.2,00.0,37.0,30.0,21.7,0001.0,0019.14,0013.46,0012.12
2022-10-07 11:41:00,,0837.5,5.01,0.00,28.1,26.2,00.0,36.9,30.0,21.7,0001.1,0019.72,0013.28,0011.96
2022-10-07 11:42:00,,0837.5,4.98,0.00,28.1,26.2,00.0,36.9,29.9,21.7,0001.3,0019.51,0013.10,0011.78
2022-10-07 11:43:00,,0837.5,5.01,0.00,28.1,26.2,00.0,36.9,29.9,21.6,0001.8,0019.22,0012.92,0011.64
2022-10-07 11:44:00,,0837.5,5.00,0.00,28.1,26.2,00.0,36.9,29.9,21.6,0002.6,0018.89,0012.76,0011.50
2022-10-07 11:45:00,,0837.5,5.00,0.00,28.1,26.2,00.0,36.9,29.9,21.6,0002.8,0018.90,0012.66,0011.38
2022-10-07 11:46:00,,0837.5,5.01,0.00,28.1,26.2,00.0,36.9,29.9,21.6,0002.8,0019.01,0012.49,0011.29
2022-10-07 11:47:00,,0837.6,4.99,0.00,28.1,26.2,00.0,36.9,29.9,21.5,0002.5,0019.13,0012.36,0011.20
2022-10-07 11:48:00,,0837.6,5.02,0.00,28.1,26.2,00.0,36.9,29.9,21.5,0002.1,0019.19,0012.35,0011.13
2022-10-07 11:49:00,,0837.6,4.98,0.00,28.0,26.2,00.0,36.9,29.9,21.5,0001.1,0019.37,0012.33,0011.07
2022-10-07 11:50:00,,0837.6,5.02,0.00,28.0,26.2,00.0,36.8,29.9,21.5,0001.0,0019.34,0012.31,0011.04
2022-10-07 11:51:00,,0837.6,4.99,0.00,28.0,26.2,00.0,36.8,29.9,21.5,0000.6,0019.87,0012.33,0011.00
2022-10-07 11:52:00,,0837.6,5.01,0.00,28.0,26.2,00.0,36.8,29.9,21.4,0000.6,0019.25,0012.33,0010.97
2022-10-07 11:53:00,,0837.7,4.99,0.00,28.0,26.3,00.0,36.8,29.9,21.4,0001.1,0019.77,0012.34,0010.95
2022-10-07 11:54:00,,0837.7,5.00,0.00,28.0,26.3,00.0,36.8,29.9,21.3,0000.8,0020.64,0012.38,0010.93
2022-10-07 11:55:00,,0837.7,5.00,0.00,28.0,26.2,00.0,36.8,29.9,21.3,0000.5,0020.72,0012.37,0010.89
2022-10-07 11:56:00,,0837.7,5.00,0.00,28.0,26.2,00.0,36.8,29.9,21.3,0000.2,0020.68,0012.36,0010.86
2022-10-07 11:57:00,,0837.7,5.00,0.00,28.0,26.1,00.0,36.8,29.8,21.2,0000.0,0020.25,0012.35,0010.83
2022-10-07 11:58:00,,0837.7,5.00,0.00,28.0,26.1,00.0,36.8,29.8,21.2,0000.7,0019.95,0012.32,0010.81
2022-10-07 11:59:00,,0837.7,5.01,0.00,28.0,26.1,00.0,36.8,29.8,21.2,0000.9,0019.90,0012.25,0010.78
